Total_Precipitation_Accumulation
0.66 0.62 0.57 0.53 0.50 0.49 0.47 0.42 0.38 0.33 0.30 0.31 0.30 0.27 0.25 0.24 0.24 0.22 0.18 0.18 0.18 0.21 0.32 0.52 0.76 0.98 1.17 1.33 1.43 1.32 1.26 1.11 0.85 0.69 0.66 0.74 0.79 0.84 0.84 0.89 0.88 0.77 0.73
0.64 0.65 0.61 0.58 0.53 0.48 0.46 0.44 0.39 0.34 0.30 0.28 0.26 0.25 0.24 0.23 0.24 0.24 0.23 0.23 0.22 0.22 0.28 0.40 0.57 0.86 1.10 1.26 1.45 1.56 1.42 1.38 1.23 0.94 0.77 0.73 0.76 0.81 0.84 0.89 0.94 0.91 0.80
0.60 0.66 0.67 0.61 0.56 0.51 0.48 0.46 0.44 0.41 0.36 0.30 0.26 0.23 0.21 0.20 0.19 0.20 0.22 0.26 0.27 0.26 0.27 0.34 0.43 0.64 0.93 1.18 1.35 1.59 1.64 1.51 1.51 1.38 1.11 0.89 0.82 0.81 0.84 0.88 0.93 0.99 0.92
0.65 0.68 0.71 0.66 0.59 0.55 0.53 0.50 0.47 0.45 0.40 0.35 0.30 0.26 0.23 0.20 0.17 0.16 0.16 0.19 0.27 0.29 0.29 0.30 0.35 0.47 0.74 1.03 1.31 1.53 1.92 1.80 1.68 1.72 1.65 1.32 1.03 0.93 0.92 0.95 0.97 1.02 1.04
0.68 0.71 0.73 0.71 0.68 0.66 0.61 0.58 0.53 0.47 0.42 0.39 0.35 0.30 0.26 0.22 0.19 0.18 0.16 0.15 0.18 0.25 0.31 0.32 0.34 0.36 0.51 0.80 1.11 1.40 1.86 2.19 2.00 1.91 1.97 1.88 1.51 1.21 1.08 1.09 1.11 1.12 1.15
0.71 0.69 0.71 0.72 0.71 0.68 0.63 0.59 0.56 0.49 0.44 0.41 0.39 0.36 0.30 0.25 0.22 0.19 0.17 0.16 0.15 0.18 0.26 0.33 0.35 0.32 0.34 0.48 0.77 1.18 1.58 2.03 2.27 2.16 2.11 2.16 2.03 1.71 1.43 1.29 1.26 1.31 1.31
0.79 0.75 0.72 0.71 0.71 0.66 0.59 0.54 0.54 0.55 0.52 0.50 0.52 0.49 0.42 0.34 0.29 0.23 0.19 0.17 0.15 0.15 0.19 0.29 0.37 0.36 0.32 0.34 0.45 0.70 1.16 1.71 2.18 2.39 2.38 2.32 2.31 2.13 1.83 1.60 1.44 1.48 1.54
0.85 0.82 0.74 0.73 0.72 0.68 0.61 0.56 0.53 0.55 0.56 0.56 0.58 0.60 0.53 0.47 0.39 0.30 0.25 0.21 0.17 0.16 0.19 0.24 0.34 0.40 0.39 0.34 0.29 0.40 0.66 1.19 1.80 2.29 2.54 2.58 2.54 2.48 2.21 1.91 1.68 1.63 1.71
0.84 0.88 0.82 0.74 0.73 0.73 0.68 0.59 0.54 0.53 0.55 0.52 0.52 0.70 0.73 0.53 0.35 0.27 0.25 0.23 0.21 0.19 0.19 0.22 0.29 0.37 0.43 0.43 0.37 0.37 0.45 0.73 1.28 1.92 2.40 2.66 2.74 2.83 2.69 2.29 1.98 1.81 1.82
0.82 0.82 0.84 0.82 0.77 0.74 0.69 0.65 0.59 0.56 0.58 0.59 0.55 0.55 0.61 0.60 0.58 0.40 0.25 0.23 0.23 0.24 0.22 0.21 0.25 0.31 0.39 0.46 0.48 0.48 0.48 0.55 0.89 1.38 1.98 2.53 2.87 3.11 3.26 2.86 2.36 2.10 2.02
0.82 0.82 0.80 0.84 0.82 0.77 0.71 0.69 0.68 0.66 0.66 0.66 0.61 0.55 0.51 0.48 0.50 0.58 0.40 0.27 0.28 0.27 0.27 0.27 0.28 0.31 0.36 0.44 0.50 0.52 0.58 0.59 0.78 1.11 1.52 2.14 2.71 3.25 3.72 3.56 2.85 2.33 2.11
0.85 0.80 0.80 0.79 0.80 0.77 0.70 0.67 0.68 0.70 0.71 0.67 0.62 0.58 0.60 0.58 0.50 0.55 0.50 0.35 0.33 0.30 0.30 0.33 0.35 0.35 0.37 0.42 0.48 0.58 0.62 0.66 0.74 0.93 1.18 1.60 2.18 2.75 3.52 3.86 3.35 2.67 2.21
0.92 0.84 0.79 0.77 0.75 0.75 0.74 0.71 0.71 0.69 0.69 0.72 0.71 0.63 0.58 0.55 0.53 0.58 0.62 0.52 0.46 0.38 0.37 0.38 0.37 0.40 0.44 0.46 0.48 0.55 0.58 0.64 0.74 0.86 0.98 1.13 1.49 2.13 2.90 3.75 3.97 3.28 2.65
0.85 0.86 0.86 0.80 0.73 0.70 0.74 0.78 0.77 0.73 0.72 0.73 0.70 0.68 0.64 0.55 0.56 0.63 0.70 0.78 0.74 0.53 0.45 0.40 0.36 0.38 0.43 0.49 0.53 0.57 0.53 0.63 0.71 0.80 0.87 0.94 1.04 1.40 2.10 3.06 3.99 4.06 3.36
0.85 0.91 0.92 0.91 0.85 0.78 0.75 0.76 0.78 0.76 0.79 0.77 0.75 0.73 0.74 0.66 0.62 0.63 0.66 0.80 1.02 0.87 0.53 0.40 0.38 0.40 0.44 0.51 0.57 0.56 0.55 0.60 0.67 0.77 0.86 0.90 0.92 1.04 1.39 2.05 2.98 3.94 4.09
0.83 0.95 0.99 0.94 0.93 0.90 0.85 0.80 0.78 0.76 0.81 0.82 0.82 0.83 0.80 0.79 0.77 0.72 0.71 0.75 0.87 0.97 0.72 0.38 0.36 0.38 0.50 0.59 0.67 0.62 0.62 0.69 0.69 0.75 0.80 0.86 0.89 0.96 1.14 1.47 2.05 2.93 3.75
0.78 0.86 0.98 1.00 0.98 0.98 0.94 0.92 0.88 0.86 0.86 0.85 0.88 0.93 0.91 0.89 0.94 0.89 0.83 0.78 0.79 0.87 0.85 0.45 0.35 0.38 0.55 0.73 0.77 0.73 0.74 0.72 0.66 0.68 0.74 0.81 0.87 0.92 1.05 1.24 1.54 2.10 2.92
0.80 0.83 0.92 1.05 1.07 1.05 1.00 0.97 0.97 1.01 1.07 1.02 0.96 0.97 0.98 0.98 1.01 0.99 0.97 0.89 0.78 0.73 0.79 0.64 0.45 0.47 0.58 0.74 0.82 0.81 0.78 0.76 0.70 0.69 0.73 0.80 0.87 0.93 1.04 1.15 1.33 1.63 2.24
0.85 0.85 0.92 1.07 1.15 1.16 1.12 1.03 1.01 1.06 1.16 1.22 1.20 1.17 1.10 1.07 1.08 1.03 1.04 1.00 0.89 0.77 0.74 0.75 0.60 0.52 0.59 0.72 0.85 0.90 0.83 0.82 0.82 0.83 0.80 0.82 0.86 0.92 1.00 1.06 1.18 1.38 1.66
0.87 0.88 0.89 0.97 1.09 1.20 1.28 1.27 1.27 1.22 1.22 1.26 1.29 1.31 1.28 1.27 1.21 1.16 1.14 1.10 1.05 1.02 0.95 0.94 0.84 0.71 0.67 0.73 0.90 1.03 1.00 0.90 0.88 0.91 0.93 0.89 0.91 0.94 0.96 0.91 0.89 1.03 1.26
0.88 0.88 0.89 0.88 0.96 1.22 1.57 1.56 1.47 1.40 1.27 1.18 1.13 1.14 1.21 1.35 1.39 1.44 1.46 1.36 1.31 1.37 1.33 1.26 1.11 0.96 0.85 0.89 1.00 1.05 1.19 1.12 1.03 1.02 1.01 0.91 0.90 0.87 0.83 0.80 0.80 0.90 1.05
0.97 0.94 0.91 0.87 0.90 1.10 1.53 1.58 1.31 1.11 0.99 0.98 0.97 0.91 0.93 1.12 1.20 1.32 1.44 1.44 1.49 1.62 1.68 1.61 1.38 1.17 0.94 0.89 0.97 1.15 1.33 1.47 1.39 1.10 1.09 1.06 0.98 0.95 0.83 0.72 0.73 0.76 0.87
1.01 0.99 0.92 0.86 0.81 0.88 1.26 1.37 1.17 0.91 0.79 0.76 0.78 0.78 0.79 0.86 0.99 0.99 1.13 1.21 1.28 1.44 1.63 1.71 1.65 1.28 1.01 0.89 1.08 1.27 1.35 1.48 1.39 1.20 1.26 1.40 1.21 1.06 0.88 0.79 0.79 0.70 0.75
1.07 1.02 0.95 0.87 0.83 0.78 1.10 1.29 1.16 0.84 0.71 0.65 0.65 0.63 0.63 0.68 0.82 0.96 1.07 1.08 1.04 1.14 1.40 1.60 1.72 1.53 1.29 1.18 1.33 1.61 1.75 1.80 1.66 1.46 1.39 1.61 1.41 1.20 1.07 0.95 0.83 0.71 0.72
1.00 0.99 0.94 0.86 0.83 0.81 0.99 1.32 1.29 0.92 0.76 0.64 0.62 0.62 0.57 0.56 0.78 0.99 1.01 0.98 0.89 0.92 1.09 1.36 1.56 1.63 1.64 1.71 1.80 2.09 2.27 2.24 2.11 1.80 1.56 1.62 1.60 1.48 1.34 1.20 0.99 0.80 0.72
0.95 0.96 0.96 0.88 0.83 0.79 0.92 1.30 1.47 1.04 0.84 0.72 0.66 0.63 0.70 0.72 0.86 0.93 0.89 0.94 0.98 0.88 0.85 0.93 1.03 1.14 1.22 1.35 1.61 1.86 2.04 2.13 2.12 2.11 1.73 1.58 1.70 1.77 1.89 1.52 1.12 0.82 0.71